Location: Windsor
(43.2292°N, 89.3015°W)
Time: 18:11:26
(UTC+00:00)

AO-7 - Pass Details

Date: 04 July 2022
Orbit: 1440 x 1458 km, 101.9° (Epoch: 09 August)

Event Time Altitude Azimuth Distance (km) Brightness Sun altitude
Rises 08:22:24 0° 37° (NE) 4,561 ? -16.4°
Reaches altitude 10° 08:28:32 10° 71° (ENE) 3,580 ? -15.8°
Maximum altitude 08:30:31 11° 85° (E) 3,505 ? -15.6°
Drops below altitude 10° 08:32:31 10° 100° (E) 3,578 ? -15.4°
Sets 08:38:34 0° 133° (SE) 4,552 ? -14.7°
